Index of /20260428/WXO-DD/model_gdps/15km/00/021
Name Last modified Size Description
Parent Directory -
20260428T00Z_MSC_GDPS_AbsoluteVorticity_IsbL-0200_LatLon0.15_PT021H.grib2 2026-04-28 04:03 1.3M
20260428T00Z_MSC_GDPS_AbsoluteVorticity_IsbL-0250_LatLon0.15_PT021H.grib2 2026-04-28 04:03 1.3M
20260428T00Z_MSC_GDPS_AbsoluteVorticity_IsbL-0500_LatLon0.15_PT021H.grib2 2026-04-28 04:03 1.2M
20260428T00Z_MSC_GDPS_AbsoluteVorticity_IsbL-0700_LatLon0.15_PT021H.grib2 2026-04-28 04:03 1.3M
20260428T00Z_MSC_GDPS_AbsoluteVorticity_IsbL-0850_LatLon0.15_PT021H.grib2 2026-04-28 04:03 1.6M
20260428T00Z_MSC_GDPS_AirTemp_AGL-120m_LatLon0.15_PT021H.grib2 2026-04-28 04:03 914K
20260428T00Z_MSC_GDPS_AirTemp_AGL-2m_LatLon0.15_PT021H.grib2 2026-04-28 04:03 1.0M
20260428T00Z_MSC_GDPS_AirTemp_AGL-40m_LatLon0.15_PT021H.grib2 2026-04-28 04:03 818K
20260428T00Z_MSC_GDPS_AirTemp_AGL-80m_LatLon0.15_PT021H.grib2 2026-04-28 04:03 923K
20260428T00Z_MSC_GDPS_AirTemp_IsbL-0001_LatLon0.15_PT021H.grib2 2026-04-28 04:03 658K
20260428T00Z_MSC_GDPS_AirTemp_IsbL-0005_LatLon0.15_PT021H.grib2 2026-04-28 04:03 692K
20260428T00Z_MSC_GDPS_AirTemp_IsbL-0010_LatLon0.15_PT021H.grib2 2026-04-28 04:03 769K
20260428T00Z_MSC_GDPS_AirTemp_IsbL-0020_LatLon0.15_PT021H.grib2 2026-04-28 04:03 787K
20260428T00Z_MSC_GDPS_AirTemp_IsbL-0030_LatLon0.15_PT021H.grib2 2026-04-28 04:03 755K
20260428T00Z_MSC_GDPS_AirTemp_IsbL-0050_LatLon0.15_PT021H.grib2 2026-04-28 04:03 810K
20260428T00Z_MSC_GDPS_AirTemp_IsbL-0100_LatLon0.15_PT021H.grib2 2026-04-28 04:03 1.0M
20260428T00Z_MSC_GDPS_AirTemp_IsbL-0150_LatLon0.15_PT021H.grib2 2026-04-28 04:03 1.0M
20260428T00Z_MSC_GDPS_AirTemp_IsbL-0175_LatLon0.15_PT021H.grib2 2026-04-28 04:03 970K
20260428T00Z_MSC_GDPS_AirTemp_IsbL-0200_LatLon0.15_PT021H.grib2 2026-04-28 04:03 1.0M
20260428T00Z_MSC_GDPS_AirTemp_IsbL-0225_LatLon0.15_PT021H.grib2 2026-04-28 04:03 1.0M
20260428T00Z_MSC_GDPS_AirTemp_IsbL-0250_LatLon0.15_PT021H.grib2 2026-04-28 04:03 1.0M
20260428T00Z_MSC_GDPS_AirTemp_IsbL-0275_LatLon0.15_PT021H.grib2 2026-04-28 04:03 1.0M
20260428T00Z_MSC_GDPS_AirTemp_IsbL-0300_LatLon0.15_PT021H.grib2 2026-04-28 04:03 1.0M
20260428T00Z_MSC_GDPS_AirTemp_IsbL-0350_LatLon0.15_PT021H.grib2 2026-04-28 04:03 938K
20260428T00Z_MSC_GDPS_AirTemp_IsbL-0400_LatLon0.15_PT021H.grib2 2026-04-28 04:03 948K
20260428T00Z_MSC_GDPS_AirTemp_IsbL-0450_LatLon0.15_PT021H.grib2 2026-04-28 04:03 969K
20260428T00Z_MSC_GDPS_AirTemp_IsbL-0500_LatLon0.15_PT021H.grib2 2026-04-28 04:03 1.0M
20260428T00Z_MSC_GDPS_AirTemp_IsbL-0550_LatLon0.15_PT021H.grib2 2026-04-28 04:03 809K
20260428T00Z_MSC_GDPS_AirTemp_IsbL-0600_LatLon0.15_PT021H.grib2 2026-04-28 04:03 901K
20260428T00Z_MSC_GDPS_AirTemp_IsbL-0650_LatLon0.15_PT021H.grib2 2026-04-28 04:03 924K
20260428T00Z_MSC_GDPS_AirTemp_IsbL-0700_LatLon0.15_PT021H.grib2 2026-04-28 04:03 954K
20260428T00Z_MSC_GDPS_AirTemp_IsbL-0750_LatLon0.15_PT021H.grib2 2026-04-28 04:03 1.0M
20260428T00Z_MSC_GDPS_AirTemp_IsbL-0800_LatLon0.15_PT021H.grib2 2026-04-28 04:03 1.1M
20260428T00Z_MSC_GDPS_AirTemp_IsbL-0850_LatLon0.15_PT021H.grib2 2026-04-28 04:03 1.1M
20260428T00Z_MSC_GDPS_AirTemp_IsbL-0875_LatLon0.15_PT021H.grib2 2026-04-28 04:03 1.2M
20260428T00Z_MSC_GDPS_AirTemp_IsbL-0900_LatLon0.15_PT021H.grib2 2026-04-28 04:03 1.1M
20260428T00Z_MSC_GDPS_AirTemp_IsbL-0925_LatLon0.15_PT021H.grib2 2026-04-28 04:03 1.1M
20260428T00Z_MSC_GDPS_AirTemp_IsbL-0950_LatLon0.15_PT021H.grib2 2026-04-28 04:03 1.2M
20260428T00Z_MSC_GDPS_AirTemp_IsbL-0970_LatLon0.15_PT021H.grib2 2026-04-28 04:03 1.2M
20260428T00Z_MSC_GDPS_AirTemp_IsbL-0985_LatLon0.15_PT021H.grib2 2026-04-28 04:03 1.1M
20260428T00Z_MSC_GDPS_AirTemp_IsbL-1000_LatLon0.15_PT021H.grib2 2026-04-28 04:03 1.1M
20260428T00Z_MSC_GDPS_AirTemp_IsbL-1015_LatLon0.15_PT021H.grib2 2026-04-28 04:03 1.1M
20260428T00Z_MSC_GDPS_Albedo_Sfc_LatLon0.15_PT021H.grib2 2026-04-28 04:03 244K
20260428T00Z_MSC_GDPS_CAPE_Sfc_LatLon0.15_PT021H.grib2 2026-04-28 04:03 3.9M
20260428T00Z_MSC_GDPS_CIN_Sfc_LatLon0.15_PT021H.grib2 2026-04-28 04:03 2.9M
20260428T00Z_MSC_GDPS_CloudWater_EAtm_LatLon0.15_PT021H.grib2 2026-04-28 04:03 531K
20260428T00Z_MSC_GDPS_ConvectivePrecip-Accum_Sfc_LatLon0.15_PT021H.grib2 2026-04-28 04:03 2.3M
20260428T00Z_MSC_GDPS_DewPointDepression_AGL-2m_LatLon0.15_PT021H.grib2 2026-04-28 04:03 760K
20260428T00Z_MSC_GDPS_DewPointDepression_IsbL-0010_LatLon0.15_PT021H.grib2 2026-04-28 04:03 70K
20260428T00Z_MSC_GDPS_DewPointDepression_IsbL-0020_LatLon0.15_PT021H.grib2 2026-04-28 04:03 85K
20260428T00Z_MSC_GDPS_DewPointDepression_IsbL-0030_LatLon0.15_PT021H.grib2 2026-04-28 04:03 71K
20260428T00Z_MSC_GDPS_DewPointDepression_IsbL-0050_LatLon0.15_PT021H.grib2 2026-04-28 04:03 365K
20260428T00Z_MSC_GDPS_DewPointDepression_IsbL-0100_LatLon0.15_PT021H.grib2 2026-04-28 04:03 415K
20260428T00Z_MSC_GDPS_DewPointDepression_IsbL-0150_LatLon0.15_PT021H.grib2 2026-04-28 04:03 477K
20260428T00Z_MSC_GDPS_DewPointDepression_IsbL-0175_LatLon0.15_PT021H.grib2 2026-04-28 04:03 571K
20260428T00Z_MSC_GDPS_DewPointDepression_IsbL-0200_LatLon0.15_PT021H.grib2 2026-04-28 04:03 680K
20260428T00Z_MSC_GDPS_DewPointDepression_IsbL-0225_LatLon0.15_PT021H.grib2 2026-04-28 04:03 785K
20260428T00Z_MSC_GDPS_DewPointDepression_IsbL-0250_LatLon0.15_PT021H.grib2 2026-04-28 04:03 875K
20260428T00Z_MSC_GDPS_DewPointDepression_IsbL-0275_LatLon0.15_PT021H.grib2 2026-04-28 04:03 892K
20260428T00Z_MSC_GDPS_DewPointDepression_IsbL-0300_LatLon0.15_PT021H.grib2 2026-04-28 04:03 940K
20260428T00Z_MSC_GDPS_DewPointDepression_IsbL-0350_LatLon0.15_PT021H.grib2 2026-04-28 04:03 970K
20260428T00Z_MSC_GDPS_DewPointDepression_IsbL-0400_LatLon0.15_PT021H.grib2 2026-04-28 04:03 1.0M
20260428T00Z_MSC_GDPS_DewPointDepression_IsbL-0450_LatLon0.15_PT021H.grib2 2026-04-28 04:03 1.0M
20260428T00Z_MSC_GDPS_DewPointDepression_IsbL-0500_LatLon0.15_PT021H.grib2 2026-04-28 04:03 1.0M
20260428T00Z_MSC_GDPS_DewPointDepression_IsbL-0550_LatLon0.15_PT021H.grib2 2026-04-28 04:03 1.0M
20260428T00Z_MSC_GDPS_DewPointDepression_IsbL-0600_LatLon0.15_PT021H.grib2 2026-04-28 04:03 1.0M
20260428T00Z_MSC_GDPS_DewPointDepression_IsbL-0650_LatLon0.15_PT021H.grib2 2026-04-28 04:03 1.0M
20260428T00Z_MSC_GDPS_DewPointDepression_IsbL-0700_LatLon0.15_PT021H.grib2 2026-04-28 04:03 1.1M
20260428T00Z_MSC_GDPS_DewPointDepression_IsbL-0750_LatLon0.15_PT021H.grib2 2026-04-28 04:03 1.1M
20260428T00Z_MSC_GDPS_DewPointDepression_IsbL-0800_LatLon0.15_PT021H.grib2 2026-04-28 04:03 1.2M
20260428T00Z_MSC_GDPS_DewPointDepression_IsbL-0850_LatLon0.15_PT021H.grib2 2026-04-28 04:03 1.2M
20260428T00Z_MSC_GDPS_DewPointDepression_IsbL-0875_LatLon0.15_PT021H.grib2 2026-04-28 04:03 1.1M
20260428T00Z_MSC_GDPS_DewPointDepression_IsbL-0900_LatLon0.15_PT021H.grib2 2026-04-28 04:03 1.1M
20260428T00Z_MSC_GDPS_DewPointDepression_IsbL-0925_LatLon0.15_PT021H.grib2 2026-04-28 04:03 1.0M
20260428T00Z_MSC_GDPS_DewPointDepression_IsbL-0950_LatLon0.15_PT021H.grib2 2026-04-28 04:03 1.0M
20260428T00Z_MSC_GDPS_DewPointDepression_IsbL-0970_LatLon0.15_PT021H.grib2 2026-04-28 04:03 1.0M
20260428T00Z_MSC_GDPS_DewPointDepression_IsbL-0985_LatLon0.15_PT021H.grib2 2026-04-28 04:03 1.0M
20260428T00Z_MSC_GDPS_DewPointDepression_IsbL-1000_LatLon0.15_PT021H.grib2 2026-04-28 04:03 972K
20260428T00Z_MSC_GDPS_DewPointDepression_IsbL-1015_LatLon0.15_PT021H.grib2 2026-04-28 04:03 918K
20260428T00Z_MSC_GDPS_DewPoint_AGL-2m_LatLon0.15_PT021H.grib2 2026-04-28 04:03 605K
20260428T00Z_MSC_GDPS_DownwardLongwaveRadiationFlux-Accum_Sfc_LatLon0.15_PT021H.grib2 2026-04-28 04:03 901K
20260428T00Z_MSC_GDPS_DownwardShortwaveRadiationFlux-Accum_NTAtm_LatLon0.15_PT021H.grib2 2026-04-28 04:03 329K
20260428T00Z_MSC_GDPS_DownwardShortwaveRadiationFlux-Accum_Sfc_LatLon0.15_PT021H.grib2 2026-04-28 04:03 1.1M
20260428T00Z_MSC_GDPS_FreezingRain-Accum1h_Sfc_LatLon0.15_PT021H.grib2 2026-04-28 04:03 38K
20260428T00Z_MSC_GDPS_FreezingRain-Accum3h_Sfc_LatLon0.15_PT021H.grib2 2026-04-28 04:03 50K
20260428T00Z_MSC_GDPS_FreezingRain-Accum_Sfc_LatLon0.15_PT021H.grib2 2026-04-28 04:03 161K
20260428T00Z_MSC_GDPS_GeopotentialHeight_IsbL-0001_LatLon0.15_PT021H.grib2 2026-04-28 04:03 450K
20260428T00Z_MSC_GDPS_GeopotentialHeight_IsbL-0005_LatLon0.15_PT021H.grib2 2026-04-28 04:03 507K
20260428T00Z_MSC_GDPS_GeopotentialHeight_IsbL-0010_LatLon0.15_PT021H.grib2 2026-04-28 04:03 487K
20260428T00Z_MSC_GDPS_GeopotentialHeight_IsbL-0020_LatLon0.15_PT021H.grib2 2026-04-28 04:03 426K
20260428T00Z_MSC_GDPS_GeopotentialHeight_IsbL-0030_LatLon0.15_PT021H.grib2 2026-04-28 04:03 583K
20260428T00Z_MSC_GDPS_GeopotentialHeight_IsbL-0050_LatLon0.15_PT021H.grib2 2026-04-28 04:03 582K
20260428T00Z_MSC_GDPS_GeopotentialHeight_IsbL-0100_LatLon0.15_PT021H.grib2 2026-04-28 04:03 616K
20260428T00Z_MSC_GDPS_GeopotentialHeight_IsbL-0150_LatLon0.15_PT021H.grib2 2026-04-28 04:03 636K
20260428T00Z_MSC_GDPS_GeopotentialHeight_IsbL-0175_LatLon0.15_PT021H.grib2 2026-04-28 04:03 641K
20260428T00Z_MSC_GDPS_GeopotentialHeight_IsbL-0200_LatLon0.15_PT021H.grib2 2026-04-28 04:03 645K
20260428T00Z_MSC_GDPS_GeopotentialHeight_IsbL-0225_LatLon0.15_PT021H.grib2 2026-04-28 04:03 649K
20260428T00Z_MSC_GDPS_GeopotentialHeight_IsbL-0250_LatLon0.15_PT021H.grib2 2026-04-28 04:03 651K
20260428T00Z_MSC_GDPS_GeopotentialHeight_IsbL-0275_LatLon0.15_PT021H.grib2 2026-04-28 04:03 650K
20260428T00Z_MSC_GDPS_GeopotentialHeight_IsbL-0300_LatLon0.15_PT021H.grib2 2026-04-28 04:03 643K
20260428T00Z_MSC_GDPS_GeopotentialHeight_IsbL-0350_LatLon0.15_PT021H.grib2 2026-04-28 04:03 640K
20260428T00Z_MSC_GDPS_GeopotentialHeight_IsbL-0400_LatLon0.15_PT021H.grib2 2026-04-28 04:03 631K
20260428T00Z_MSC_GDPS_GeopotentialHeight_IsbL-0450_LatLon0.15_PT021H.grib2 2026-04-28 04:03 620K
20260428T00Z_MSC_GDPS_GeopotentialHeight_IsbL-0500_LatLon0.15_PT021H.grib2 2026-04-28 04:03 610K
20260428T00Z_MSC_GDPS_GeopotentialHeight_IsbL-0550_LatLon0.15_PT021H.grib2 2026-04-28 04:03 600K
20260428T00Z_MSC_GDPS_GeopotentialHeight_IsbL-0600_LatLon0.15_PT021H.grib2 2026-04-28 04:03 526K
20260428T00Z_MSC_GDPS_GeopotentialHeight_IsbL-0650_LatLon0.15_PT021H.grib2 2026-04-28 04:03 524K
20260428T00Z_MSC_GDPS_GeopotentialHeight_IsbL-0700_LatLon0.15_PT021H.grib2 2026-04-28 04:03 522K
20260428T00Z_MSC_GDPS_GeopotentialHeight_IsbL-0750_LatLon0.15_PT021H.grib2 2026-04-28 04:03 695K
20260428T00Z_MSC_GDPS_GeopotentialHeight_IsbL-0800_LatLon0.15_PT021H.grib2 2026-04-28 04:03 704K
20260428T00Z_MSC_GDPS_GeopotentialHeight_IsbL-0850_LatLon0.15_PT021H.grib2 2026-04-28 04:03 708K
20260428T00Z_MSC_GDPS_GeopotentialHeight_IsbL-0875_LatLon0.15_PT021H.grib2 2026-04-28 04:03 717K
20260428T00Z_MSC_GDPS_GeopotentialHeight_IsbL-0900_LatLon0.15_PT021H.grib2 2026-04-28 04:03 724K
20260428T00Z_MSC_GDPS_GeopotentialHeight_IsbL-0925_LatLon0.15_PT021H.grib2 2026-04-28 04:03 734K
20260428T00Z_MSC_GDPS_GeopotentialHeight_IsbL-0950_LatLon0.15_PT021H.grib2 2026-04-28 04:03 741K
20260428T00Z_MSC_GDPS_GeopotentialHeight_IsbL-0970_LatLon0.15_PT021H.grib2 2026-04-28 04:03 752K
20260428T00Z_MSC_GDPS_GeopotentialHeight_IsbL-0985_LatLon0.15_PT021H.grib2 2026-04-28 04:03 769K
20260428T00Z_MSC_GDPS_GeopotentialHeight_IsbL-1000_LatLon0.15_PT021H.grib2 2026-04-28 04:03 791K
20260428T00Z_MSC_GDPS_GeopotentialHeight_IsbL-1015_LatLon0.15_PT021H.grib2 2026-04-28 04:03 814K
20260428T00Z_MSC_GDPS_Humidex_Sfc_LatLon0.15_PT021H.grib2 2026-04-28 04:03 5.3M
20260428T00Z_MSC_GDPS_IcePellets-Accum1h_Sfc_LatLon0.15_PT021H.grib2 2026-04-28 04:03 15K
20260428T00Z_MSC_GDPS_IcePellets-Accum3h_Sfc_LatLon0.15_PT021H.grib2 2026-04-28 04:03 16K
20260428T00Z_MSC_GDPS_IcePellets-Accum_Sfc_LatLon0.15_PT021H.grib2 2026-04-28 04:03 35K
20260428T00Z_MSC_GDPS_KIndex_Sfc_LatLon0.15_PT021H.grib2 2026-04-28 04:03 6.3M
20260428T00Z_MSC_GDPS_LatentHeatNetFlux_Sfc_LatLon0.15_PT021H.grib2 2026-04-28 04:03 663K
20260428T00Z_MSC_GDPS_LiftedIndex-MU-VT_IsbL-0500_LatLon0.15_PT021H.grib2 2026-04-28 04:03 5.3M
20260428T00Z_MSC_GDPS_NetLongwaveRadiationFlux-Accum_Sfc_LatLon0.15_PT021H.grib2 2026-04-28 04:03 1.1M
20260428T00Z_MSC_GDPS_NetShortwaveRadiationFlux-Accum_Sfc_LatLon0.15_PT021H.grib2 2026-04-28 04:03 1.1M
20260428T00Z_MSC_GDPS_O3MixingRatio_LatLon0.15_PT021H.grib2 2026-04-28 04:52 2.1M
20260428T00Z_MSC_GDPS_O3_EAtm_LatLon0.15_PT021H.grib2 2026-04-28 04:52 2.5M
20260428T00Z_MSC_GDPS_PlanetaryBoundaryLayerHeight_Sfc_LatLon0.15_PT021H.grib2 2026-04-28 04:03 2.4M
20260428T00Z_MSC_GDPS_Precip-Accum1h_Sfc_LatLon0.15_PT021H.grib2 2026-04-28 04:03 3.3M
20260428T00Z_MSC_GDPS_Precip-Accum3h_Sfc_LatLon0.15_PT021H.grib2 2026-04-28 04:03 3.6M
20260428T00Z_MSC_GDPS_Precip-Accum_Sfc_LatLon0.15_PT021H.grib2 2026-04-28 04:03 4.3M
20260428T00Z_MSC_GDPS_PrecipRate_Sfc_LatLon0.15_PT021H.grib2 2026-04-28 04:03 3.0M
20260428T00Z_MSC_GDPS_PrecipType-Instant_Sfc_LatLon0.15_PT021H.grib2 2026-04-28 04:03 1.6M
20260428T00Z_MSC_GDPS_Pressure_MSL_LatLon0.15_PT021H.grib2 2026-04-28 04:03 825K
20260428T00Z_MSC_GDPS_Pressure_PVU-1.5_LatLon0.15_PT021H.grib2 2026-04-28 04:03 5.8M
20260428T00Z_MSC_GDPS_Pressure_PVU-1_LatLon0.15_PT021H.grib2 2026-04-28 04:03 6.0M
20260428T00Z_MSC_GDPS_Pressure_PVU-2_LatLon0.15_PT021H.grib2 2026-04-28 04:03 5.6M
20260428T00Z_MSC_GDPS_Pressure_Sfc_LatLon0.15_PT021H.grib2 2026-04-28 04:03 1.1M
20260428T00Z_MSC_GDPS_RadiativeTemp_Sfc_LatLon0.15_PT021H.grib2 2026-04-28 04:03 482K
20260428T00Z_MSC_GDPS_Rain-Accum1h_Sfc_LatLon0.15_PT021H.grib2 2026-04-28 04:03 1.7M
20260428T00Z_MSC_GDPS_Rain-Accum3h_Sfc_LatLon0.15_PT021H.grib2 2026-04-28 04:03 1.9M
20260428T00Z_MSC_GDPS_Rain-Accum_Sfc_LatLon0.15_PT021H.grib2 2026-04-28 04:03 3.2M
20260428T00Z_MSC_GDPS_RelativeHumidity_AGL-2m_LatLon0.15_PT021H.grib2 2026-04-28 04:03 1.1M
20260428T00Z_MSC_GDPS_RelativeHumidity_IsbL-0010_LatLon0.15_PT021H.grib2 2026-04-28 04:03 282K
20260428T00Z_MSC_GDPS_RelativeHumidity_IsbL-0020_LatLon0.15_PT021H.grib2 2026-04-28 04:03 297K
20260428T00Z_MSC_GDPS_RelativeHumidity_IsbL-0030_LatLon0.15_PT021H.grib2 2026-04-28 04:03 269K
20260428T00Z_MSC_GDPS_RelativeHumidity_IsbL-0050_LatLon0.15_PT021H.grib2 2026-04-28 04:03 419K
20260428T00Z_MSC_GDPS_RelativeHumidity_IsbL-0100_LatLon0.15_PT021H.grib2 2026-04-28 04:03 519K
20260428T00Z_MSC_GDPS_RelativeHumidity_IsbL-0150_LatLon0.15_PT021H.grib2 2026-04-28 04:03 673K
20260428T00Z_MSC_GDPS_RelativeHumidity_IsbL-0175_LatLon0.15_PT021H.grib2 2026-04-28 04:03 791K
20260428T00Z_MSC_GDPS_RelativeHumidity_IsbL-0200_LatLon0.15_PT021H.grib2 2026-04-28 04:03 705K
20260428T00Z_MSC_GDPS_RelativeHumidity_IsbL-0225_LatLon0.15_PT021H.grib2 2026-04-28 04:03 792K
20260428T00Z_MSC_GDPS_RelativeHumidity_IsbL-0250_LatLon0.15_PT021H.grib2 2026-04-28 04:03 867K
20260428T00Z_MSC_GDPS_RelativeHumidity_IsbL-0275_LatLon0.15_PT021H.grib2 2026-04-28 04:03 890K
20260428T00Z_MSC_GDPS_RelativeHumidity_IsbL-0300_LatLon0.15_PT021H.grib2 2026-04-28 04:03 934K
20260428T00Z_MSC_GDPS_RelativeHumidity_IsbL-0350_LatLon0.15_PT021H.grib2 2026-04-28 04:03 958K
20260428T00Z_MSC_GDPS_RelativeHumidity_IsbL-0400_LatLon0.15_PT021H.grib2 2026-04-28 04:03 1.0M
20260428T00Z_MSC_GDPS_RelativeHumidity_IsbL-0450_LatLon0.15_PT021H.grib2 2026-04-28 04:03 1.0M
20260428T00Z_MSC_GDPS_RelativeHumidity_IsbL-0500_LatLon0.15_PT021H.grib2 2026-04-28 04:03 1.0M
20260428T00Z_MSC_GDPS_RelativeHumidity_IsbL-0550_LatLon0.15_PT021H.grib2 2026-04-28 04:03 1.1M
20260428T00Z_MSC_GDPS_RelativeHumidity_IsbL-0600_LatLon0.15_PT021H.grib2 2026-04-28 04:03 1.1M
20260428T00Z_MSC_GDPS_RelativeHumidity_IsbL-0650_LatLon0.15_PT021H.grib2 2026-04-28 04:03 1.1M
20260428T00Z_MSC_GDPS_RelativeHumidity_IsbL-0700_LatLon0.15_PT021H.grib2 2026-04-28 04:03 1.1M
20260428T00Z_MSC_GDPS_RelativeHumidity_IsbL-0750_LatLon0.15_PT021H.grib2 2026-04-28 04:03 1.2M
20260428T00Z_MSC_GDPS_RelativeHumidity_IsbL-0800_LatLon0.15_PT021H.grib2 2026-04-28 04:03 1.3M
20260428T00Z_MSC_GDPS_RelativeHumidity_IsbL-0850_LatLon0.15_PT021H.grib2 2026-04-28 04:03 1.3M
20260428T00Z_MSC_GDPS_RelativeHumidity_IsbL-0875_LatLon0.15_PT021H.grib2 2026-04-28 04:03 1.3M
20260428T00Z_MSC_GDPS_RelativeHumidity_IsbL-0900_LatLon0.15_PT021H.grib2 2026-04-28 04:03 1.2M
20260428T00Z_MSC_GDPS_RelativeHumidity_IsbL-0925_LatLon0.15_PT021H.grib2 2026-04-28 04:03 1.2M
20260428T00Z_MSC_GDPS_RelativeHumidity_IsbL-0950_LatLon0.15_PT021H.grib2 2026-04-28 04:03 1.2M
20260428T00Z_MSC_GDPS_RelativeHumidity_IsbL-0970_LatLon0.15_PT021H.grib2 2026-04-28 04:03 1.2M
20260428T00Z_MSC_GDPS_RelativeHumidity_IsbL-0985_LatLon0.15_PT021H.grib2 2026-04-28 04:03 1.2M
20260428T00Z_MSC_GDPS_RelativeHumidity_IsbL-1000_LatLon0.15_PT021H.grib2 2026-04-28 04:03 1.1M
20260428T00Z_MSC_GDPS_RelativeHumidity_IsbL-1015_LatLon0.15_PT021H.grib2 2026-04-28 04:03 1.1M
20260428T00Z_MSC_GDPS_RelativeVorticity_IsbL-0200_LatLon0.15_PT021H.grib2 2026-04-28 04:03 1.3M
20260428T00Z_MSC_GDPS_RelativeVorticity_IsbL-0250_LatLon0.15_PT021H.grib2 2026-04-28 04:03 1.6M
20260428T00Z_MSC_GDPS_RelativeVorticity_IsbL-0500_LatLon0.15_PT021H.grib2 2026-04-28 04:03 1.2M
20260428T00Z_MSC_GDPS_RelativeVorticity_IsbL-0700_LatLon0.15_PT021H.grib2 2026-04-28 04:03 1.6M
20260428T00Z_MSC_GDPS_RelativeVorticity_IsbL-0850_LatLon0.15_PT021H.grib2 2026-04-28 04:03 1.6M
20260428T00Z_MSC_GDPS_Runoff-Accum_Sfc_LatLon0.15_PT021H.grib2 2026-04-28 04:03 117K
20260428T00Z_MSC_GDPS_SensibleHeatNetFlux_Sfc_LatLon0.15_PT021H.grib2 2026-04-28 04:03 608K
20260428T00Z_MSC_GDPS_ShowalterIndex_IsbL-0500_LatLon0.15_PT021H.grib2 2026-04-28 04:03 6.2M
20260428T00Z_MSC_GDPS_Snow-Accum1h_Sfc_LatLon0.15_PT021H.grib2 2026-04-28 04:03 1.1M
20260428T00Z_MSC_GDPS_Snow-Accum3h_Sfc_LatLon0.15_PT021H.grib2 2026-04-28 04:03 1.0M
20260428T00Z_MSC_GDPS_Snow-Accum_Sfc_LatLon0.15_PT021H.grib2 2026-04-28 04:03 1.7M
20260428T00Z_MSC_GDPS_SnowDensity_Sfc_LatLon0.15_PT021H.grib2 2026-04-28 04:03 261K
20260428T00Z_MSC_GDPS_SnowDepth_Sfc_LatLon0.15_PT021H.grib2 2026-04-28 04:03 1.7M
20260428T00Z_MSC_GDPS_SoilTemp_DBS-0to10cm_LatLon0.15_PT021H.grib2 2026-04-28 04:03 496K
20260428T00Z_MSC_GDPS_SoilTemp_Sfc_LatLon0.15_PT021H.grib2 2026-04-28 04:03 565K
20260428T00Z_MSC_GDPS_SoilVolumetricIceContent_Sfc_LatLon0.15_PT021H.grib2 2026-04-28 04:03 211K
20260428T00Z_MSC_GDPS_SoilVolumetricWaterContent_DBS-0to10cm_LatLon0.15_PT021H.grib2 2026-04-28 04:03 577K
20260428T00Z_MSC_GDPS_SoilVolumetricWaterContent_DBS-0to1cm_LatLon0.15_PT021H.grib2 2026-04-28 04:03 646K
20260428T00Z_MSC_GDPS_SpecificHumidity_AGL-120m_LatLon0.15_PT021H.grib2 2026-04-28 04:03 1.1M
20260428T00Z_MSC_GDPS_SpecificHumidity_AGL-2m_LatLon0.15_PT021H.grib2 2026-04-28 04:03 1.2M
20260428T00Z_MSC_GDPS_SpecificHumidity_AGL-40m_LatLon0.15_PT021H.grib2 2026-04-28 04:03 1.1M
20260428T00Z_MSC_GDPS_SpecificHumidity_AGL-80m_LatLon0.15_PT021H.grib2 2026-04-28 04:03 1.1M
20260428T00Z_MSC_GDPS_SpecificHumidity_IsbL-0001_LatLon0.15_PT021H.grib2 2026-04-28 04:03 1.3M
20260428T00Z_MSC_GDPS_SpecificHumidity_IsbL-0005_LatLon0.15_PT021H.grib2 2026-04-28 04:03 1.3M
20260428T00Z_MSC_GDPS_SpecificHumidity_IsbL-0010_LatLon0.15_PT021H.grib2 2026-04-28 04:03 1.4M
20260428T00Z_MSC_GDPS_SpecificHumidity_IsbL-0020_LatLon0.15_PT021H.grib2 2026-04-28 04:03 1.4M
20260428T00Z_MSC_GDPS_SpecificHumidity_IsbL-0030_LatLon0.15_PT021H.grib2 2026-04-28 04:03 1.4M
20260428T00Z_MSC_GDPS_SpecificHumidity_IsbL-0050_LatLon0.15_PT021H.grib2 2026-04-28 04:03 1.7M
20260428T00Z_MSC_GDPS_SpecificHumidity_IsbL-0100_LatLon0.15_PT021H.grib2 2026-04-28 04:03 1.1M
20260428T00Z_MSC_GDPS_SpecificHumidity_IsbL-0150_LatLon0.15_PT021H.grib2 2026-04-28 04:03 1.0M
20260428T00Z_MSC_GDPS_SpecificHumidity_IsbL-0175_LatLon0.15_PT021H.grib2 2026-04-28 04:03 1.3M
20260428T00Z_MSC_GDPS_SpecificHumidity_IsbL-0200_LatLon0.15_PT021H.grib2 2026-04-28 04:03 1.3M
20260428T00Z_MSC_GDPS_SpecificHumidity_IsbL-0225_LatLon0.15_PT021H.grib2 2026-04-28 04:03 1.3M
20260428T00Z_MSC_GDPS_SpecificHumidity_IsbL-0250_LatLon0.15_PT021H.grib2 2026-04-28 04:03 1.4M
20260428T00Z_MSC_GDPS_SpecificHumidity_IsbL-0275_LatLon0.15_PT021H.grib2 2026-04-28 04:03 1.3M
20260428T00Z_MSC_GDPS_SpecificHumidity_IsbL-0300_LatLon0.15_PT021H.grib2 2026-04-28 04:03 1.2M
20260428T00Z_MSC_GDPS_SpecificHumidity_IsbL-0350_LatLon0.15_PT021H.grib2 2026-04-28 04:03 1.2M
20260428T00Z_MSC_GDPS_SpecificHumidity_IsbL-0400_LatLon0.15_PT021H.grib2 2026-04-28 04:03 1.5M
20260428T00Z_MSC_GDPS_SpecificHumidity_IsbL-0450_LatLon0.15_PT021H.grib2 2026-04-28 04:03 1.6M
20260428T00Z_MSC_GDPS_SpecificHumidity_IsbL-0500_LatLon0.15_PT021H.grib2 2026-04-28 04:03 1.4M
20260428T00Z_MSC_GDPS_SpecificHumidity_IsbL-0550_LatLon0.15_PT021H.grib2 2026-04-28 04:03 1.6M
20260428T00Z_MSC_GDPS_SpecificHumidity_IsbL-0600_LatLon0.15_PT021H.grib2 2026-04-28 04:03 1.7M
20260428T00Z_MSC_GDPS_SpecificHumidity_IsbL-0650_LatLon0.15_PT021H.grib2 2026-04-28 04:03 1.5M
20260428T00Z_MSC_GDPS_SpecificHumidity_IsbL-0700_LatLon0.15_PT021H.grib2 2026-04-28 04:03 1.6M
20260428T00Z_MSC_GDPS_SpecificHumidity_IsbL-0750_LatLon0.15_PT021H.grib2 2026-04-28 04:03 1.7M
20260428T00Z_MSC_GDPS_SpecificHumidity_IsbL-0800_LatLon0.15_PT021H.grib2 2026-04-28 04:03 1.8M
20260428T00Z_MSC_GDPS_SpecificHumidity_IsbL-0850_LatLon0.15_PT021H.grib2 2026-04-28 04:03 1.9M
20260428T00Z_MSC_GDPS_SpecificHumidity_IsbL-0875_LatLon0.15_PT021H.grib2 2026-04-28 04:03 1.9M
20260428T00Z_MSC_GDPS_SpecificHumidity_IsbL-0900_LatLon0.15_PT021H.grib2 2026-04-28 04:03 1.9M
20260428T00Z_MSC_GDPS_SpecificHumidity_IsbL-0925_LatLon0.15_PT021H.grib2 2026-04-28 04:03 1.9M
20260428T00Z_MSC_GDPS_SpecificHumidity_IsbL-0950_LatLon0.15_PT021H.grib2 2026-04-28 04:03 1.5M
20260428T00Z_MSC_GDPS_SpecificHumidity_IsbL-0970_LatLon0.15_PT021H.grib2 2026-04-28 04:03 1.5M
20260428T00Z_MSC_GDPS_SpecificHumidity_IsbL-0985_LatLon0.15_PT021H.grib2 2026-04-28 04:03 1.5M
20260428T00Z_MSC_GDPS_SpecificHumidity_IsbL-1000_LatLon0.15_PT021H.grib2 2026-04-28 04:03 1.5M
20260428T00Z_MSC_GDPS_SpecificHumidity_IsbL-1015_LatLon0.15_PT021H.grib2 2026-04-28 04:03 1.4M
20260428T00Z_MSC_GDPS_SpecificHumidity_Sfc_LatLon0.15_PT021H.grib2 2026-04-28 04:03 655K
20260428T00Z_MSC_GDPS_Thickness_IsbL-0850to0700_LatLon0.15_PT021H.grib2 2026-04-28 04:03 468K
20260428T00Z_MSC_GDPS_Thickness_IsbL-1000to0500_LatLon0.15_PT021H.grib2 2026-04-28 04:03 375K
20260428T00Z_MSC_GDPS_Thickness_IsbL-1000to0850_LatLon0.15_PT021H.grib2 2026-04-28 04:03 491K
20260428T00Z_MSC_GDPS_TotalCloudCover_Sfc_LatLon0.15_PT021H.grib2 2026-04-28 04:03 837K
20260428T00Z_MSC_GDPS_TotalTotalsIndex_Sfc_LatLon0.15_PT021H.grib2 2026-04-28 04:03 6.2M
20260428T00Z_MSC_GDPS_UVIndex-ClearSky_Sfc_LatLon0.15_PT021H.grib2 2026-04-28 04:52 1.0M
20260428T00Z_MSC_GDPS_UVIndex_Sfc_LatLon0.15_PT021H.grib2 2026-04-28 04:52 1.5M
20260428T00Z_MSC_GDPS_UpwardLongwaveRadiationFlux_NTAtm_LatLon0.15_PT021H.grib2 2026-04-28 04:03 838K
20260428T00Z_MSC_GDPS_VerticalVelocity_IsbL-0200_LatLon0.15_PT021H.grib2 2026-04-28 04:03 1.2M
20260428T00Z_MSC_GDPS_VerticalVelocity_IsbL-0250_LatLon0.15_PT021H.grib2 2026-04-28 04:03 1.0M
20260428T00Z_MSC_GDPS_VerticalVelocity_IsbL-0500_LatLon0.15_PT021H.grib2 2026-04-28 04:03 1.0M
20260428T00Z_MSC_GDPS_VerticalVelocity_IsbL-0600_LatLon0.15_PT021H.grib2 2026-04-28 04:03 1.1M
20260428T00Z_MSC_GDPS_VerticalVelocity_IsbL-0700_LatLon0.15_PT021H.grib2 2026-04-28 04:03 1.1M
20260428T00Z_MSC_GDPS_VerticalVelocity_IsbL-0850_LatLon0.15_PT021H.grib2 2026-04-28 04:03 1.3M
20260428T00Z_MSC_GDPS_WindChill_Sfc_LatLon0.15_PT021H.grib2 2026-04-28 04:03 5.3M
20260428T00Z_MSC_GDPS_WindDir_AGL-10m_LatLon0.15_PT021H.grib2 2026-04-28 04:03 1.3M
20260428T00Z_MSC_GDPS_WindDir_AGL-120m_LatLon0.15_PT021H.grib2 2026-04-28 04:03 1.4M
20260428T00Z_MSC_GDPS_WindDir_AGL-40m_LatLon0.15_PT021H.grib2 2026-04-28 04:03 1.4M
20260428T00Z_MSC_GDPS_WindDir_AGL-80m_LatLon0.15_PT021H.grib2 2026-04-28 04:03 1.4M
20260428T00Z_MSC_GDPS_WindDir_IsbL-0001_LatLon0.15_PT021H.grib2 2026-04-28 04:03 664K
20260428T00Z_MSC_GDPS_WindDir_IsbL-0005_LatLon0.15_PT021H.grib2 2026-04-28 04:03 803K
20260428T00Z_MSC_GDPS_WindDir_IsbL-0010_LatLon0.15_PT021H.grib2 2026-04-28 04:03 847K
20260428T00Z_MSC_GDPS_WindDir_IsbL-0020_LatLon0.15_PT021H.grib2 2026-04-28 04:03 960K
20260428T00Z_MSC_GDPS_WindDir_IsbL-0030_LatLon0.15_PT021H.grib2 2026-04-28 04:03 931K
20260428T00Z_MSC_GDPS_WindDir_IsbL-0050_LatLon0.15_PT021H.grib2 2026-04-28 04:03 945K
20260428T00Z_MSC_GDPS_WindDir_IsbL-0100_LatLon0.15_PT021H.grib2 2026-04-28 04:03 1.0M
20260428T00Z_MSC_GDPS_WindDir_IsbL-0150_LatLon0.15_PT021H.grib2 2026-04-28 04:03 1.0M
20260428T00Z_MSC_GDPS_WindDir_IsbL-0175_LatLon0.15_PT021H.grib2 2026-04-28 04:03 1.1M
20260428T00Z_MSC_GDPS_WindDir_IsbL-0200_LatLon0.15_PT021H.grib2 2026-04-28 04:03 1.1M
20260428T00Z_MSC_GDPS_WindDir_IsbL-0225_LatLon0.15_PT021H.grib2 2026-04-28 04:03 1.1M
20260428T00Z_MSC_GDPS_WindDir_IsbL-0250_LatLon0.15_PT021H.grib2 2026-04-28 04:03 1.1M
20260428T00Z_MSC_GDPS_WindDir_IsbL-0275_LatLon0.15_PT021H.grib2 2026-04-28 04:03 1.2M
20260428T00Z_MSC_GDPS_WindDir_IsbL-0300_LatLon0.15_PT021H.grib2 2026-04-28 04:03 1.2M
20260428T00Z_MSC_GDPS_WindDir_IsbL-0350_LatLon0.15_PT021H.grib2 2026-04-28 04:03 1.2M
20260428T00Z_MSC_GDPS_WindDir_IsbL-0400_LatLon0.15_PT021H.grib2 2026-04-28 04:03 1.3M
20260428T00Z_MSC_GDPS_WindDir_IsbL-0450_LatLon0.15_PT021H.grib2 2026-04-28 04:03 1.3M
20260428T00Z_MSC_GDPS_WindDir_IsbL-0500_LatLon0.15_PT021H.grib2 2026-04-28 04:03 1.3M
20260428T00Z_MSC_GDPS_WindDir_IsbL-0550_LatLon0.15_PT021H.grib2 2026-04-28 04:03 1.4M
20260428T00Z_MSC_GDPS_WindDir_IsbL-0600_LatLon0.15_PT021H.grib2 2026-04-28 04:03 1.4M
20260428T00Z_MSC_GDPS_WindDir_IsbL-0650_LatLon0.15_PT021H.grib2 2026-04-28 04:03 1.5M
20260428T00Z_MSC_GDPS_WindDir_IsbL-0700_LatLon0.15_PT021H.grib2 2026-04-28 04:03 1.6M
20260428T00Z_MSC_GDPS_WindDir_IsbL-0750_LatLon0.15_PT021H.grib2 2026-04-28 04:03 1.7M
20260428T00Z_MSC_GDPS_WindDir_IsbL-0800_LatLon0.15_PT021H.grib2 2026-04-28 04:03 1.8M
20260428T00Z_MSC_GDPS_WindDir_IsbL-0850_LatLon0.15_PT021H.grib2 2026-04-28 04:03 1.9M
20260428T00Z_MSC_GDPS_WindDir_IsbL-0875_LatLon0.15_PT021H.grib2 2026-04-28 04:03 2.0M
20260428T00Z_MSC_GDPS_WindDir_IsbL-0900_LatLon0.15_PT021H.grib2 2026-04-28 04:03 2.0M
20260428T00Z_MSC_GDPS_WindDir_IsbL-0925_LatLon0.15_PT021H.grib2 2026-04-28 04:03 2.0M
20260428T00Z_MSC_GDPS_WindDir_IsbL-0950_LatLon0.15_PT021H.grib2 2026-04-28 04:03 2.0M
20260428T00Z_MSC_GDPS_WindDir_IsbL-0970_LatLon0.15_PT021H.grib2 2026-04-28 04:03 2.0M
20260428T00Z_MSC_GDPS_WindDir_IsbL-0985_LatLon0.15_PT021H.grib2 2026-04-28 04:03 2.0M
20260428T00Z_MSC_GDPS_WindDir_IsbL-1000_LatLon0.15_PT021H.grib2 2026-04-28 04:03 2.1M
20260428T00Z_MSC_GDPS_WindDir_IsbL-1015_LatLon0.15_PT021H.grib2 2026-04-28 04:03 2.1M
20260428T00Z_MSC_GDPS_WindGust-Max_AGL-10m_LatLon0.15_PT021H.grib2 2026-04-28 04:03 2.2M
20260428T00Z_MSC_GDPS_WindGust-Min_AGL-10m_LatLon0.15_PT021H.grib2 2026-04-28 04:03 2.1M
20260428T00Z_MSC_GDPS_WindGust_AGL-10m_LatLon0.15_PT021H.grib2 2026-04-28 04:03 2.1M
20260428T00Z_MSC_GDPS_WindSpeed_AGL-10m_LatLon0.15_PT021H.grib2 2026-04-28 04:03 1.1M
20260428T00Z_MSC_GDPS_WindSpeed_AGL-120m_LatLon0.15_PT021H.grib2 2026-04-28 04:03 1.3M
20260428T00Z_MSC_GDPS_WindSpeed_AGL-40m_LatLon0.15_PT021H.grib2 2026-04-28 04:03 1.3M
20260428T00Z_MSC_GDPS_WindSpeed_AGL-80m_LatLon0.15_PT021H.grib2 2026-04-28 04:03 1.3M
20260428T00Z_MSC_GDPS_WindSpeed_IsbL-0001_LatLon0.15_PT021H.grib2 2026-04-28 04:03 648K
20260428T00Z_MSC_GDPS_WindSpeed_IsbL-0005_LatLon0.15_PT021H.grib2 2026-04-28 04:03 701K
20260428T00Z_MSC_GDPS_WindSpeed_IsbL-0010_LatLon0.15_PT021H.grib2 2026-04-28 04:03 640K
20260428T00Z_MSC_GDPS_WindSpeed_IsbL-0020_LatLon0.15_PT021H.grib2 2026-04-28 04:03 676K
20260428T00Z_MSC_GDPS_WindSpeed_IsbL-0030_LatLon0.15_PT021H.grib2 2026-04-28 04:03 873K
20260428T00Z_MSC_GDPS_WindSpeed_IsbL-0050_LatLon0.15_PT021H.grib2 2026-04-28 04:03 1.0M
20260428T00Z_MSC_GDPS_WindSpeed_IsbL-0100_LatLon0.15_PT021H.grib2 2026-04-28 04:03 1.1M
20260428T00Z_MSC_GDPS_WindSpeed_IsbL-0150_LatLon0.15_PT021H.grib2 2026-04-28 04:03 956K
20260428T00Z_MSC_GDPS_WindSpeed_IsbL-0175_LatLon0.15_PT021H.grib2 2026-04-28 04:03 1.0M
20260428T00Z_MSC_GDPS_WindSpeed_IsbL-0200_LatLon0.15_PT021H.grib2 2026-04-28 04:03 1.1M
20260428T00Z_MSC_GDPS_WindSpeed_IsbL-0225_LatLon0.15_PT021H.grib2 2026-04-28 04:03 1.1M
20260428T00Z_MSC_GDPS_WindSpeed_IsbL-0250_LatLon0.15_PT021H.grib2 2026-04-28 04:03 1.1M
20260428T00Z_MSC_GDPS_WindSpeed_IsbL-0275_LatLon0.15_PT021H.grib2 2026-04-28 04:03 1.1M
20260428T00Z_MSC_GDPS_WindSpeed_IsbL-0300_LatLon0.15_PT021H.grib2 2026-04-28 04:03 1.1M
20260428T00Z_MSC_GDPS_WindSpeed_IsbL-0350_LatLon0.15_PT021H.grib2 2026-04-28 04:03 1.1M
20260428T00Z_MSC_GDPS_WindSpeed_IsbL-0400_LatLon0.15_PT021H.grib2 2026-04-28 04:03 1.1M
20260428T00Z_MSC_GDPS_WindSpeed_IsbL-0450_LatLon0.15_PT021H.grib2 2026-04-28 04:03 1.1M
20260428T00Z_MSC_GDPS_WindSpeed_IsbL-0500_LatLon0.15_PT021H.grib2 2026-04-28 04:03 1.1M
20260428T00Z_MSC_GDPS_WindSpeed_IsbL-0550_LatLon0.15_PT021H.grib2 2026-04-28 04:03 1.1M
20260428T00Z_MSC_GDPS_WindSpeed_IsbL-0600_LatLon0.15_PT021H.grib2 2026-04-28 04:03 1.1M
20260428T00Z_MSC_GDPS_WindSpeed_IsbL-0650_LatLon0.15_PT021H.grib2 2026-04-28 04:03 1.2M
20260428T00Z_MSC_GDPS_WindSpeed_IsbL-0700_LatLon0.15_PT021H.grib2 2026-04-28 04:03 1.5M
20260428T00Z_MSC_GDPS_WindSpeed_IsbL-0750_LatLon0.15_PT021H.grib2 2026-04-28 04:03 1.6M
20260428T00Z_MSC_GDPS_WindSpeed_IsbL-0800_LatLon0.15_PT021H.grib2 2026-04-28 04:03 1.7M
20260428T00Z_MSC_GDPS_WindSpeed_IsbL-0850_LatLon0.15_PT021H.grib2 2026-04-28 04:03 1.7M
20260428T00Z_MSC_GDPS_WindSpeed_IsbL-0875_LatLon0.15_PT021H.grib2 2026-04-28 04:03 1.8M
20260428T00Z_MSC_GDPS_WindSpeed_IsbL-0900_LatLon0.15_PT021H.grib2 2026-04-28 04:03 1.8M
20260428T00Z_MSC_GDPS_WindSpeed_IsbL-0925_LatLon0.15_PT021H.grib2 2026-04-28 04:03 1.8M
20260428T00Z_MSC_GDPS_WindSpeed_IsbL-0950_LatLon0.15_PT021H.grib2 2026-04-28 04:03 1.9M
20260428T00Z_MSC_GDPS_WindSpeed_IsbL-0970_LatLon0.15_PT021H.grib2 2026-04-28 04:03 1.9M
20260428T00Z_MSC_GDPS_WindSpeed_IsbL-0985_LatLon0.15_PT021H.grib2 2026-04-28 04:03 1.9M
20260428T00Z_MSC_GDPS_WindSpeed_IsbL-1000_LatLon0.15_PT021H.grib2 2026-04-28 04:03 1.9M
20260428T00Z_MSC_GDPS_WindSpeed_IsbL-1015_LatLon0.15_PT021H.grib2 2026-04-28 04:03 1.8M
20260428T00Z_MSC_GDPS_WindU_AGL-10m_LatLon0.15_PT021H.grib2 2026-04-28 04:03 1.3M
20260428T00Z_MSC_GDPS_WindU_AGL-120m_LatLon0.15_PT021H.grib2 2026-04-28 04:03 1.0M
20260428T00Z_MSC_GDPS_WindU_AGL-40m_LatLon0.15_PT021H.grib2 2026-04-28 04:03 1.0M
20260428T00Z_MSC_GDPS_WindU_AGL-80m_LatLon0.15_PT021H.grib2 2026-04-28 04:03 1.0M
20260428T00Z_MSC_GDPS_WindU_IsbL-0001_LatLon0.15_PT021H.grib2 2026-04-28 04:03 650K
20260428T00Z_MSC_GDPS_WindU_IsbL-0005_LatLon0.15_PT021H.grib2 2026-04-28 04:03 701K
20260428T00Z_MSC_GDPS_WindU_IsbL-0010_LatLon0.15_PT021H.grib2 2026-04-28 04:03 713K
20260428T00Z_MSC_GDPS_WindU_IsbL-0020_LatLon0.15_PT021H.grib2 2026-04-28 04:03 743K
20260428T00Z_MSC_GDPS_WindU_IsbL-0030_LatLon0.15_PT021H.grib2 2026-04-28 04:03 751K
20260428T00Z_MSC_GDPS_WindU_IsbL-0050_LatLon0.15_PT021H.grib2 2026-04-28 04:03 706K
20260428T00Z_MSC_GDPS_WindU_IsbL-0100_LatLon0.15_PT021H.grib2 2026-04-28 04:03 929K
20260428T00Z_MSC_GDPS_WindU_IsbL-0150_LatLon0.15_PT021H.grib2 2026-04-28 04:03 1.0M
20260428T00Z_MSC_GDPS_WindU_IsbL-0175_LatLon0.15_PT021H.grib2 2026-04-28 04:03 1.0M
20260428T00Z_MSC_GDPS_WindU_IsbL-0200_LatLon0.15_PT021H.grib2 2026-04-28 04:03 855K
20260428T00Z_MSC_GDPS_WindU_IsbL-0225_LatLon0.15_PT021H.grib2 2026-04-28 04:03 863K
20260428T00Z_MSC_GDPS_WindU_IsbL-0250_LatLon0.15_PT021H.grib2 2026-04-28 04:03 864K
20260428T00Z_MSC_GDPS_WindU_IsbL-0275_LatLon0.15_PT021H.grib2 2026-04-28 04:03 889K
20260428T00Z_MSC_GDPS_WindU_IsbL-0300_LatLon0.15_PT021H.grib2 2026-04-28 04:03 880K
20260428T00Z_MSC_GDPS_WindU_IsbL-0350_LatLon0.15_PT021H.grib2 2026-04-28 04:03 895K
20260428T00Z_MSC_GDPS_WindU_IsbL-0400_LatLon0.15_PT021H.grib2 2026-04-28 04:03 1.1M
20260428T00Z_MSC_GDPS_WindU_IsbL-0450_LatLon0.15_PT021H.grib2 2026-04-28 04:03 1.1M
20260428T00Z_MSC_GDPS_WindU_IsbL-0500_LatLon0.15_PT021H.grib2 2026-04-28 04:03 1.1M
20260428T00Z_MSC_GDPS_WindU_IsbL-0550_LatLon0.15_PT021H.grib2 2026-04-28 04:03 1.1M
20260428T00Z_MSC_GDPS_WindU_IsbL-0600_LatLon0.15_PT021H.grib2 2026-04-28 04:03 1.2M
20260428T00Z_MSC_GDPS_WindU_IsbL-0650_LatLon0.15_PT021H.grib2 2026-04-28 04:03 1.2M
20260428T00Z_MSC_GDPS_WindU_IsbL-0700_LatLon0.15_PT021H.grib2 2026-04-28 04:03 1.2M
20260428T00Z_MSC_GDPS_WindU_IsbL-0750_LatLon0.15_PT021H.grib2 2026-04-28 04:03 1.3M
20260428T00Z_MSC_GDPS_WindU_IsbL-0800_LatLon0.15_PT021H.grib2 2026-04-28 04:03 1.4M
20260428T00Z_MSC_GDPS_WindU_IsbL-0850_LatLon0.15_PT021H.grib2 2026-04-28 04:03 1.4M
20260428T00Z_MSC_GDPS_WindU_IsbL-0875_LatLon0.15_PT021H.grib2 2026-04-28 04:03 1.5M
20260428T00Z_MSC_GDPS_WindU_IsbL-0900_LatLon0.15_PT021H.grib2 2026-04-28 04:03 1.5M
20260428T00Z_MSC_GDPS_WindU_IsbL-0925_LatLon0.15_PT021H.grib2 2026-04-28 04:03 1.5M
20260428T00Z_MSC_GDPS_WindU_IsbL-0950_LatLon0.15_PT021H.grib2 2026-04-28 04:03 1.5M
20260428T00Z_MSC_GDPS_WindU_IsbL-0970_LatLon0.15_PT021H.grib2 2026-04-28 04:03 1.4M
20260428T00Z_MSC_GDPS_WindU_IsbL-0985_LatLon0.15_PT021H.grib2 2026-04-28 04:03 1.4M
20260428T00Z_MSC_GDPS_WindU_IsbL-1000_LatLon0.15_PT021H.grib2 2026-04-28 04:03 1.4M
20260428T00Z_MSC_GDPS_WindU_IsbL-1015_LatLon0.15_PT021H.grib2 2026-04-28 04:03 1.4M
20260428T00Z_MSC_GDPS_WindV_AGL-10m_LatLon0.15_PT021H.grib2 2026-04-28 04:03 1.3M
20260428T00Z_MSC_GDPS_WindV_AGL-120m_LatLon0.15_PT021H.grib2 2026-04-28 04:03 1.0M
20260428T00Z_MSC_GDPS_WindV_AGL-40m_LatLon0.15_PT021H.grib2 2026-04-28 04:03 1.0M
20260428T00Z_MSC_GDPS_WindV_AGL-80m_LatLon0.15_PT021H.grib2 2026-04-28 04:03 1.0M
20260428T00Z_MSC_GDPS_WindV_IsbL-0001_LatLon0.15_PT021H.grib2 2026-04-28 04:03 561K
20260428T00Z_MSC_GDPS_WindV_IsbL-0005_LatLon0.15_PT021H.grib2 2026-04-28 04:03 864K
20260428T00Z_MSC_GDPS_WindV_IsbL-0010_LatLon0.15_PT021H.grib2 2026-04-28 04:03 892K
20260428T00Z_MSC_GDPS_WindV_IsbL-0020_LatLon0.15_PT021H.grib2 2026-04-28 04:03 856K
20260428T00Z_MSC_GDPS_WindV_IsbL-0030_LatLon0.15_PT021H.grib2 2026-04-28 04:03 859K
20260428T00Z_MSC_GDPS_WindV_IsbL-0050_LatLon0.15_PT021H.grib2 2026-04-28 04:03 912K
20260428T00Z_MSC_GDPS_WindV_IsbL-0100_LatLon0.15_PT021H.grib2 2026-04-28 04:03 1.1M
20260428T00Z_MSC_GDPS_WindV_IsbL-0150_LatLon0.15_PT021H.grib2 2026-04-28 04:03 1.0M
20260428T00Z_MSC_GDPS_WindV_IsbL-0175_LatLon0.15_PT021H.grib2 2026-04-28 04:03 1.0M
20260428T00Z_MSC_GDPS_WindV_IsbL-0200_LatLon0.15_PT021H.grib2 2026-04-28 04:03 1.1M
20260428T00Z_MSC_GDPS_WindV_IsbL-0225_LatLon0.15_PT021H.grib2 2026-04-28 04:03 859K
20260428T00Z_MSC_GDPS_WindV_IsbL-0250_LatLon0.15_PT021H.grib2 2026-04-28 04:03 860K
20260428T00Z_MSC_GDPS_WindV_IsbL-0275_LatLon0.15_PT021H.grib2 2026-04-28 04:03 885K
20260428T00Z_MSC_GDPS_WindV_IsbL-0300_LatLon0.15_PT021H.grib2 2026-04-28 04:03 875K
20260428T00Z_MSC_GDPS_WindV_IsbL-0350_LatLon0.15_PT021H.grib2 2026-04-28 04:03 886K
20260428T00Z_MSC_GDPS_WindV_IsbL-0400_LatLon0.15_PT021H.grib2 2026-04-28 04:03 888K
20260428T00Z_MSC_GDPS_WindV_IsbL-0450_LatLon0.15_PT021H.grib2 2026-04-28 04:03 890K
20260428T00Z_MSC_GDPS_WindV_IsbL-0500_LatLon0.15_PT021H.grib2 2026-04-28 04:03 1.1M
20260428T00Z_MSC_GDPS_WindV_IsbL-0550_LatLon0.15_PT021H.grib2 2026-04-28 04:03 1.1M
20260428T00Z_MSC_GDPS_WindV_IsbL-0600_LatLon0.15_PT021H.grib2 2026-04-28 04:03 1.1M
20260428T00Z_MSC_GDPS_WindV_IsbL-0650_LatLon0.15_PT021H.grib2 2026-04-28 04:03 1.2M
20260428T00Z_MSC_GDPS_WindV_IsbL-0700_LatLon0.15_PT021H.grib2 2026-04-28 04:03 1.2M
20260428T00Z_MSC_GDPS_WindV_IsbL-0750_LatLon0.15_PT021H.grib2 2026-04-28 04:03 1.3M
20260428T00Z_MSC_GDPS_WindV_IsbL-0800_LatLon0.15_PT021H.grib2 2026-04-28 04:03 1.3M
20260428T00Z_MSC_GDPS_WindV_IsbL-0850_LatLon0.15_PT021H.grib2 2026-04-28 04:03 1.4M
20260428T00Z_MSC_GDPS_WindV_IsbL-0875_LatLon0.15_PT021H.grib2 2026-04-28 04:03 1.4M
20260428T00Z_MSC_GDPS_WindV_IsbL-0900_LatLon0.15_PT021H.grib2 2026-04-28 04:03 1.5M
20260428T00Z_MSC_GDPS_WindV_IsbL-0925_LatLon0.15_PT021H.grib2 2026-04-28 04:03 1.5M
20260428T00Z_MSC_GDPS_WindV_IsbL-0950_LatLon0.15_PT021H.grib2 2026-04-28 04:03 1.4M
20260428T00Z_MSC_GDPS_WindV_IsbL-0970_LatLon0.15_PT021H.grib2 2026-04-28 04:03 1.4M
20260428T00Z_MSC_GDPS_WindV_IsbL-0985_LatLon0.15_PT021H.grib2 2026-04-28 04:03 1.4M
20260428T00Z_MSC_GDPS_WindV_IsbL-1000_LatLon0.15_PT021H.grib2 2026-04-28 04:03 1.4M
20260428T00Z_MSC_GDPS_WindV_IsbL-1015_LatLon0.15_PT021H.grib2 2026-04-28 04:03 1.4M